Wind_Speed
3 4 5 5 5 6 7 6 5 5 6 6 6 7 8 7 7 8 9 9 10 11 12 12 13 14 14 14 14 15 15 16 16 16 16 16 16 16 16 16 15 14 14
4 5 5 6 6 7 6 6 6 6 6 7 7 8 7 7 7 8 9 9 10 11 12 12 12 13 14 15 15 15 16 16 17 17 17 17 16 16 17 17 16 15 15
4 5 6 7 8 7 6 7 7 8 8 8 8 7 7 8 9 9 9 10 10 12 12 12 13 13 14 15 16 16 16 17 17 17 17 17 17 17 17 17 16 16 16
5 6 6 7 7 8 8 8 8 9 9 8 8 8 9 9 9 10 10 11 11 12 12 13 13 14 14 15 16 17 17 17 18 18 18 18 18 18 18 18 17 17 17
5 6 7 8 8 9 9 9 9 9 9 8 9 9 9 10 11 11 11 11 12 13 13 13 13 14 14 15 15 16 17 17 18 18 18 19 19 19 19 19 19 19 18
6 7 8 9 10 10 10 10 9 9 9 9 10 10 10 11 11 12 13 13 14 14 14 15 14 15 15 16 16 16 17 17 17 17 18 18 19 19 19 20 20 20 20
8 9 9 10 11 11 11 11 10 10 10 10 10 11 11 12 13 13 14 15 15 15 15 15 15 16 15 15 15 15 16 16 16 17 18 18 19 20 20 20 21 22 22
9 9 10 11 12 12 12 12 11 11 12 12 12 13 13 13 14 15 15 15 15 16 16 17 17 17 15 15 15 15 14 15 16 17 19 19 20 21 21 21 21 22 23
10 11 12 12 13 13 13 13 13 13 14 14 14 14 14 14 15 16 16 16 17 17 17 17 17 16 16 15 15 16 16 16 17 18 19 20 20 21 21 23 22 22 22
11 12 13 13 13 14 14 14 15 15 15 15 15 16 16 16 16 16 17 18 18 18 18 18 18 18 18 17 16 15 15 16 17 18 19 20 20 21 22 22 22 23 22
13 13 13 14 14 15 15 15 16 16 16 16 17 17 17 18 18 18 19 19 19 19 19 19 20 20 20 19 17 16 17 18 18 19 19 20 20 20 21 22 23 23 23
14 14 14 14 14 15 16 16 17 18 18 18 19 19 19 19 19 20 19 19 19 20 20 20 20 20 20 19 19 19 19 20 19 20 20 20 21 21 22 22 22 23 24
14 14 14 15 15 16 17 17 18 18 19 19 20 20 19 19 20 21 20 20 19 20 20 20 20 20 20 20 20 21 20 20 21 21 22 22 22 22 22 22 22 23 24
14 14 15 16 16 17 18 18 19 19 19 20 20 20 20 21 21 21 21 21 20 19 19 20 20 21 21 21 21 21 21 21 22 21 22 23 23 23 23 23 23 24 24
14 15 16 18 18 19 19 19 19 20 20 21 21 21 21 21 22 22 21 21 20 20 20 20 21 22 22 21 22 21 21 23 23 22 23 23 23 23 24 24 25 26 25
16 17 17 19 19 20 20 20 20 20 20 21 21 21 21 21 22 21 21 21 21 21 21 21 21 22 22 22 22 22 23 23 23 24 24 24 24 24 25 25 25 26 26
18 19 19 20 21 21 21 21 21 21 22 22 22 22 22 22 22 22 22 22 22 22 22 22 22 22 23 23 24 24 24 24 24 24 24 24 24 25 25 25 25 25 26
20 20 21 21 22 23 23 23 23 23 23 23 23 23 22 23 23 23 23 23 23 24 24 23 23 23 23 24 25 25 24 24 24 24 24 24 24 24 24 24 24 25 24
21 22 23 23 24 24 24 25 25 24 24 24 24 24 23 23 23 24 24 24 24 24 24 24 23 24 24 24 25 25 25 25 25 24 24 24 24 25 25 25 25 25 25
22 23 24 24 25 24 25 25 25 26 25 25 25 24 24 24 24 25 24 24 24 25 25 25 25 25 26 26 26 26 25 25 25 25 25 25 24 24 24 25 25 26 26
23 25 26 26 26 25 26 26 26 26 25 25 25 25 24 24 25 25 26 25 26 26 26 26 26 26 27 26 26 26 25 25 25 25 25 25 25 25 25 24 25 26 26
26 26 27 27 27 26 25 26 26 26 26 26 26 26 25 26 26 27 27 27 27 27 26 27 27 27 26 26 26 25 24 24 24 24 24 24 25 24 24 25 25 26 26
27 27 27 27 27 26 26 26 26 26 27 27 27 27 27 28 28 28 28 28 27 27 27 27 27 27 26 25 25 24 23 23 23 23 24 24 24 24 24 25 25 25 25
27 27 26 27 27 27 27 28 28 28 28 28 29 29 29 29 28 28 28 27 27 27 26 26 26 26 27 26 25 25 24 24 24 24 23 23 23 23 23 24 24 25 25
26 25 26 27 27 28 28 29 29 30 30 30 30 30 29 29 29 28 27 27 27 27 26 25 25 26 26 26 26 25 25 24 23 24 24 23 23 23 23 24 24 24 24
26 27 28 28 28 28 29 30 30 30 30 30 30 30 30 29 29 29 28 28 27 27 26 25 25 25 25 25 26 25 24 24 23 23 23 23 23 23 23 23 23 23 23
Wind_Direction
306 311 318 316 307 307 307 308 301 289 285 283 286 287 293 287 283 272 275 279 282 283 278 275 270 269 267 267 264 260 254 253 254 253 252 251 252 252 253 255 255 257 259
324 328 324 325 320 318 318 313 309 305 296 290 292 292 296 297 288 280 281 284 286 288 285 281 277 270 268 270 268 265 259 253 252 253 253 254 254 254 255 254 255 257 258
323 323 321 323 324 331 331 322 314 313 306 296 297 294 297 297 299 295 293 289 291 292 287 285 279 276 273 274 272 268 265 258 253 251 251 255 256 255 254 253 255 256 257
327 325 322 325 327 331 329 324 319 313 310 304 301 301 299 298 298 294 296 298 299 295 290 288 283 280 279 279 275 272 265 260 254 254 252 253 256 256 256 254 255 255 256
330 329 327 327 327 330 327 323 320 313 310 309 306 304 300 297 293 294 296 296 298 298 296 293 289 285 283 280 278 274 267 261 256 255 255 255 256 256 254 253 253 255 256
328 325 325 323 325 327 328 325 322 318 313 309 306 305 305 300 300 298 298 296 296 299 299 296 290 287 286 284 280 277 273 264 257 256 257 258 258 257 254 254 253 255 257
326 325 321 319 325 328 326 324 320 316 309 303 303 302 301 298 298 298 299 300 299 300 302 298 291 285 288 286 284 284 275 264 260 260 261 261 260 257 256 257 256 257 258
324 323 321 320 323 323 322 320 317 311 307 301 301 300 298 296 295 298 300 299 298 298 297 298 299 292 287 289 286 284 278 271 267 266 264 265 264 260 259 258 260 261 260
325 323 321 322 322 322 320 316 315 312 308 303 301 300 298 296 295 294 293 294 295 296 293 293 297 295 294 287 286 282 277 274 273 270 268 267 266 262 262 262 261 261 260
322 325 323 322 320 320 319 318 316 314 312 307 304 301 299 297 295 293 292 292 292 291 292 293 295 292 290 288 285 279 276 274 274 272 272 271 269 267 264 262 260 258 260
324 325 324 323 321 320 319 318 315 314 311 309 306 303 299 298 297 296 295 293 291 290 291 291 291 291 289 287 284 279 278 278 278 275 274 272 270 269 269 265 262 260 261
324 323 325 324 321 320 318 315 313 313 311 310 307 304 301 300 299 297 295 293 290 289 290 290 290 288 288 289 287 284 282 279 279 276 274 271 268 267 267 266 264 263 263
324 326 327 326 323 322 319 316 313 312 311 310 308 305 302 301 299 298 295 294 291 290 289 290 290 290 288 289 287 284 282 279 277 275 275 273 269 267 267 265 264 263 263
324 327 326 326 324 322 321 319 317 313 311 311 309 306 304 303 300 298 295 293 292 291 290 289 290 291 290 287 286 287 285 281 280 278 278 277 274 272 269 265 263 263 263
322 323 324 324 324 323 322 319 318 316 313 312 309 308 307 305 302 299 296 294 293 293 291 291 291 292 290 288 287 287 284 283 284 282 279 277 274 272 269 267 265 263 263
322 321 321 323 323 322 322 320 316 316 315 313 311 309 306 305 303 298 295 295 294 292 292 291 291 291 290 289 286 284 284 284 286 283 280 277 274 272 270 269 268 265 264
322 320 319 320 321 322 321 319 315 314 313 312 310 308 307 305 302 300 298 296 294 294 293 291 290 290 289 288 286 285 284 284 283 282 279 276 276 273 270 268 268 267 265
319 318 318 317 318 318 317 318 316 312 310 309 308 307 306 304 302 299 299 297 295 294 294 292 290 289 290 290 290 288 286 285 284 282 279 276 274 273 272 271 269 268 269
316 316 317 316 316 317 316 315 314 313 311 310 309 307 305 303 301 300 300 299 297 295 293 292 291 290 291 292 291 288 287 285 283 282 280 276 273 271 271 270 270 269 269
316 316 317 316 316 317 318 317 316 315 313 311 310 307 306 305 303 301 301 300 299 296 295 293 293 291 290 291 291 288 287 286 282 280 279 275 273 273 273 272 271 270 270
314 316 316 316 316 315 315 316 316 315 313 311 309 307 307 307 305 302 299 298 297 295 294 293 293 293 290 289 289 287 286 286 283 281 279 277 274 274 274 273 273 273 271
314 314 315 316 316 316 316 316 316 317 314 312 311 310 309 307 303 301 300 298 296 294 293 291 291 292 292 291 289 287 285 284 282 279 278 277 275 274 274 272 273 274 273
311 313 314 315 316 316 317 318 317 317 315 313 311 309 308 305 302 300 300 299 297 296 294 293 292 292 293 292 289 288 285 284 283 280 279 277 275 274 274 274 273 272 272
311 313 314 314 314 316 317 318 317 317 317 314 311 309 308 307 305 304 301 299 298 298 296 295 294 293 293 291 290 289 286 284 283 282 281 278 276 275 275 274 273 272 271
312 314 314 314 314 314 315 316 318 318 317 315 313 312 310 308 307 306 303 300 299 299 296 295 295 293 291 290 289 288 285 284 284 283 282 279 277 277 276 275 273 271 270
312 312 314 315 314 315 315 316 317 318 317 316 315 313 312 310 309 307 304 301 300 299 297 294 294 294 293 291 289 288 285 284 284 282 281 278 277 277 277 275 273 272 270
Height
5871 5871 5870 5870 5869 5869 5868 5868 5867 5867 5867 5867 5866 5866 5866 5865 5865 5865 5865 5865 5864 5864 5864 5864 5864 5864 5864 5864 5865 5865 5866 5866 5867 5869 5870 5871 5872 5873 5874 5875 5876 5877 5878
5870 5870 5869 5869 5868 5868 5867 5867 5866 5866 5865 5865 5865 5865 5864 5863 5863 5863 5863 5863 5862 5862 5861 5861 5861 5861 5861 5861 5861 5861 5861 5862 5863 5864 5866 5867 5868 5869 5870 5872 5873 5874 5875
5870 5870 5869 5868 5868 5867 5866 5865 5865 5864 5864 5863 5863 5863 5862 5862 5861 5861 5861 5860 5860 5859 5858 5858 5858 5857 5857 5857 5857 5857 5857 5858 5859 5860 5861 5863 5864 5865 5866 5867 5869 5870 5871
5870 5869 5869 5868 5867 5866 5865 5864 5863 5862 5862 5861 5861 5860 5860 5860 5859 5859 5858 5858 5857 5856 5856 5855 5854 5854 5854 5853 5852 5852 5852 5853 5854 5855 5856 5858 5860 5861 5862 5863 5865 5866 5867
5869 5869 5868 5867 5866 5865 5864 5862 5861 5860 5860 5859 5859 5858 5858 5857 5857 5856 5856 5855 5854 5853 5853 5852 5851 5850 5850 5849 5848 5847 5847 5848 5849 5851 5853 5854 5855 5856 5858 5859 5860 5861 5862
5869 5868 5867 5866 5865 5864 5862 5861 5860 5859 5858 5857 5856 5856 5855 5855 5854 5854 5853 5852 5851 5851 5849 5848 5847 5846 5846 5845 5844 5843 5841 5842 5844 5846 5848 5850 5851 5852 5853 5855 5856 5857 5858
5868 5867 5866 5865 5864 5862 5861 5859 5858 5857 5856 5855 5854 5854 5853 5852 5851 5850 5849 5848 5847 5847 5846 5845 5843 5843 5842 5840 5840 5838 5836 5837 5840 5842 5844 5845 5846 5847 5849 5850 5851 5852 5853
5867 5866 5865 5864 5862 5861 5859 5858 5857 5855 5854 5852 5851 5851 5850 5850 5848 5847 5846 5845 5844 5843 5842 5841 5840 5839 5838 5837 5836 5836 5835 5835 5837 5838 5840 5841 5842 5842 5843 5844 5845 5846 5847
5866 5864 5863 5862 5860 5859 5857 5856 5854 5853 5852 5850 5849 5848 5847 5846 5845 5844 5843 5841 5841 5840 5839 5837 5835 5833 5834 5833 5833 5833 5832 5833 5833 5834 5835 5836 5836 5837 5838 5839 5840 5841 5842
5864 5863 5861 5860 5858 5857 5855 5853 5852 5850 5849 5847 5846 5844 5843 5842 5841 5840 5839 5838 5837 5836 5835 5833 5832 5831 5830 5829 5829 5829 5829 5829 5829 5830 5830 5830 5831 5831 5832 5833 5834 5835 5836
5863 5861 5859 5858 5856 5854 5852 5850 5849 5847 5845 5844 5842 5841 5839 5838 5836 5836 5835 5833 5832 5831 5830 5829 5828 5827 5826 5825 5825 5825 5825 5825 5825 5825 5825 5825 5826 5826 5827 5827 5828 5829 5830
5861 5859 5857 5855 5854 5852 5850 5848 5846 5844 5842 5840 5838 5837 5835 5833 5832 5830 5829 5828 5827 5826 5825 5824 5824 5823 5822 5821 5821 5820 5820 5820 5820 5820 5819 5820 5820 5820 5821 5821 5822 5823 5823
5859 5857 5855 5853 5851 5849 5847 5844 5842 5840 5838 5836 5834 5832 5830 5828 5827 5825 5824 5823 5822 5821 5820 5819 5818 5817 5817 5816 5816 5815 5815 5814 5814 5814 5814 5813 5814 5814 5814 5815 5816 5816 5817
5856 5855 5852 5850 5848 5846 5843 5841 5839 5837 5835 5832 5830 5828 5826 5824 5822 5820 5819 5818 5816 5816 5815 5814 5813 5812 5811 5811 5810 5809 5809 5808 5808 5808 5807 5807 5807 5808 5808 5808 5809 5809 5810
5854 5852 5850 5848 5845 5843 5840 5838 5835 5833 5831 5828 5825 5823 5821 5819 5817 5815 5813 5812 5811 5810 5810 5809 5808 5807 5806 5805 5804 5803 5803 5803 5802 5801 5801 5801 5801 5801 5801 5802 5802 5802 5803
5852 5850 5848 5845 5842 5839 5837 5834 5831 5829 5826 5824 5821 5819 5816 5814 5812 5810 5808 5807 5806 5805 5804 5804 5803 5802 5800 5799 5798 5797 5797 5796 5795 5795 5794 5794 5794 5794 5794 5795 5795 5795 5795
5849 5847 5844 5842 5839 5836 5833 5830 5827 5825 5822 5819 5816 5814 5811 5809 5806 5804 5803 5801 5800 5799 5798 5798 5796 5795 5794 5793 5792 5791 5790 5789 5788 5787 5787 5787 5787 5787 5787 5787 5787 5788 5788
5846 5843 5841 5838 5835 5832 5829 5826 5823 5820 5817 5814 5811 5808 5806 5803 5801 5799 5797 5795 5794 5793 5792 5791 5790 5789 5787 5786 5785 5783 5782 5782 5781 5780 5780 5779 5779 5780 5780 5780 5780 5780 5780
5842 5839 5836 5834 5831 5828 5824 5821 5818 5815 5812 5809 5806 5803 5800 5798 5795 5793 5791 5789 5787 5786 5785 5784 5783 5782 5780 5779 5777 5776 5775 5774 5773 5773 5773 5772 5772 5772 5772 5772 5772 5773 5773
5838 5835 5832 5829 5826 5823 5820 5817 5813 5810 5807 5803 5800 5797 5795 5792 5790 5787 5785 5783 5781 5780 5778 5777 5776 5775 5773 5772 5770 5769 5767 5766 5765 5765 5765 5765 5765 5765 5764 5764 5764 5765 5765
5833 5831 5828 5825 5822 5819 5816 5812 5808 5805 5801 5798 5795 5791 5789 5786 5784 5781 5779 5777 5775 5773 5771 5770 5769 5767 5766 5764 5762 5761 5760 5759 5758 5757 5757 5757 5757 5757 5757 5757 5757 5757 5757
5829 5826 5823 5820 5817 5813 5810 5807 5803 5800 5796 5793 5789 5786 5783 5780 5777 5775 5772 5770 5768 5766 5764 5762 5761 5759 5758 5756 5754 5752 5752 5751 5750 5750 5749 5749 5749 5749 5750 5749 5749 5749 5748
5824 5821 5818 5815 5812 5808 5805 5801 5798 5794 5791 5787 5783 5780 5777 5774 5771 5768 5765 5763 5760 5758 5756 5755 5753 5751 5750 5748 5746 5745 5744 5744 5743 5742 5741 5741 5741 5741 5741 5741 5741 5741 5741
5818 5815 5812 5809 5806 5803 5799 5796 5792 5789 5785 5781 5777 5773 5770 5767 5763 5761 5758 5755 5753 5750 5748 5747 5745 5743 5742 5740 5739 5738 5737 5736 5735 5735 5734 5733 5733 5733 5733 5733 5733 5732 5732
5813 5810 5807 5804 5801 5797 5794 5790 5786 5782 5778 5774 5770 5767 5763 5760 5756 5753 5751 5748 5746 5743 5741 5739 5737 5735 5734 5732 5731 5730 5729 5729 5728 5728 5727 5726 5726 5725 5725 5725 5725 5724 5724
5807 5805 5801 5798 5795 5792 5788 5784 5780 5776 5772 5768 5764 5760 5756 5753 5749 5746 5743 5740 5738 5736 5734 5732 5730 5728 5726 5725 5724 5723 5722 5721 5720 5720 5719 5719 5718 5718 5718 5717 5717 5716 5717